Track COSMOS 1884 (GLONASS) now! COSMOS 1884 (GLONASS) is classified as:
1 18356U 87079B 21018.31032273 -.00000055 00000-0 00000-0 0 9998 2 18356 65.9870 24.9311 0019819 217.1297 191.9388 2.13102673259568